Tracking 30970 objects as of 3-Jul-2025
HD Live streaming from Space Station
objects crossing your sky now

CZ-6A DEB

Track CZ-6A DEB now!
10-day predictions


NORAD ID: 54263
Int'l Code: 2022-151E
Perigee: 829.0 km
Apogee: 1,283.0 km
Inclination: 99.1 °
Period: 106.2 minutes
Semi major axis: 7426 km
RCS: Unknown
Launch date: November 11, 2022
Source: People's Republic of China (PRC)
Launch site: Taiyaun Space Center, China (TSC)

Note: This is SATELLITE DEBRIS
Your satellite tracking list
Your tracking list is empty




NASA's NSSDC Master Catalog

Two Line Element Set (TLE):
1 54263U 22151E   25183.86174991  .00000217  00000-0  26716-3 0  9990
2 54263  99.1172 129.3629 0305647 113.1431 250.2223 13.56395381130567
Source of the keplerian elements: AFSPC